| time (UTC) | temp F | wind direction | speed MPH | gust MPH | rain 1hr in | rain 24hr in | rain mn in | humidity % | barometer mb |
| 20260902031500 | 58 | 272 | 3.0 | 15.0 | 0.00 | 0.02 | 0.00 | 59 | 1012.5 |
| 20260902030105 | 57 | 255 | 7.0 | 18.0 | 0.00 | 0.02 | 0.00 | 61 | 1012.7 |
| 20260902024559 | 56 | 267 | 5.0 | 13.0 | 0.00 | 0.02 | 0.00 | 61 | 1013.1 |
| 20260902023108 | 55 | 252 | 8.0 | 16.0 | 0.00 | 0.02 | 0.00 | 64 | 1013.5 |
| 20260902021615 | 57 | 302 | 4.0 | 16.0 | 0.00 | 0.02 | 0.00 | 64 | 1013.8 |
| 20260902020059 | 55 | 326 | 8.0 | 15.0 | 0.00 | 0.02 | 0.00 | 61 | 1014.0 |
| 20260902014555 | 55 | 291 | 8.0 | 15.0 | 0.00 | 0.02 | 0.00 | 60 | 1014.2 |
| 20260902013050 | 55 | 271 | 6.0 | 12.0 | 0.00 | 0.02 | 0.00 | 62 | 1014.3 |
| 20260902011549 | 55 | 276 | 9.0 | 14.0 | 0.00 | 0.02 | 0.00 | 60 | 1014.3 |
| 20260902010057 | 55 | 295 | 7.0 | 12.0 | 0.00 | 0.02 | 0.00 | 61 | 1014.4 |
| 20260902004548 | 55 | 290 | 6.0 | 14.0 | 0.00 | 0.02 | 0.00 | 64 | 1014.6 |
| 20260902003045 | 54 | 264 | 6.0 | 15.0 | 0.00 | 0.02 | 0.00 | 65 | 1014.6 |
| 20260902001544 | 54 | 272 | 3.0 | 13.0 | 0.00 | 0.02 | 0.00 | 67 | 1014.7 |
| 20260902000052 | 54 | 269 | 6.0 | 12.0 | 0.00 | 0.02 | 0.00 | 65 | 1014.9 |
| 20260901234604 | 54 | 283 | 6.0 | 13.0 | 0.00 | 0.02 | 0.00 | 66 | 1014.9 |
| 20260901233036 | 53 | 262 | 8.0 | 14.0 | 0.00 | 0.02 | 0.00 | 69 | 1015.0 |
| 20260901231546 | 52 | 286 | 6.0 | 12.0 | 0.00 | 0.02 | 0.00 | 74 | 1015.1 |
| 20260901230040 | 51 | 280 | 4.0 | 9.0 | 0.00 | 0.02 | 0.00 | 77 | 1015.2 |
| 20260901224536 | 51 | 290 | 5.0 | 11.0 | 0.00 | 0.02 | 0.00 | 79 | 1015.2 |
| 20260901223036 | 50 | 257 | 5.0 | 9.0 | 0.00 | 0.02 | 0.00 | 81 | 1015.0 |
| 20260901221533 | 50 | 255 | 4.0 | 8.0 | 0.00 | 0.02 | 0.00 | 82 | 1014.8 |
| 20260901220031 | 49 | 269 | 3.0 | 8.0 | 0.00 | 0.02 | 0.00 | 84 | 1014.7 |
| 20260901214524 | 48 | 276 | 2.0 | 7.0 | 0.00 | 0.02 | 0.00 | 86 | 1014.6 |
| 20260901213022 | 47 | 286 | 1.0 | 3.0 | 0.00 | 0.02 | 0.00 | 86 | 1014.5 |
| 20260901211520 | 47 | 280 | 2.0 | 5.0 | 0.00 | 0.02 | 0.00 | 85 | 1014.2 |
| 20260901210017 | 47 | 285 | 2.0 | 4.0 | 0.00 | 0.02 | 0.00 | 85 | 1014.1 |
| 20260901204515 | 47 | 288 | 2.0 | 5.0 | 0.00 | 0.02 | 0.00 | 85 | 1014.0 |
| 20260901203020 | 48 | 285 | 2.0 | 6.0 | 0.00 | 0.02 | 0.00 | 85 | 1013.7 |
| 20260901201508 | 48 | 279 | 3.0 | 9.0 | 0.00 | 0.02 | 0.00 | 86 | 1013.5 |
| 20260901200013 | 48 | 272 | 3.0 | 5.0 | 0.00 | 0.02 | 0.00 | 86 | 1013.3 |
| 20260901194502 | 49 | 278 | 2.0 | 5.0 | 0.00 | 0.02 | 0.00 | 85 | 1013.3 |
| 20260901193059 | 50 | 268 | 3.0 | 9.0 | 0.00 | 0.02 | 0.00 | 85 | 1013.1 |
| 20260901191556 | 50 | 288 | 4.0 | 9.0 | 0.00 | 0.02 | 0.00 | 85 | 1013.0 |
| 20260901190105 | 51 | 265 | 3.0 | 9.0 | 0.00 | 0.02 | 0.00 | 84 | 1013.0 |
| 20260901184549 | 51 | 257 | 4.0 | 12.0 | 0.00 | 0.02 | 0.00 | 84 | 1012.7 |
| 20260901183048 | 51 | 263 | 5.0 | 14.0 | 0.00 | 0.02 | 0.00 | 85 | 1012.6 |
| 20260901181553 | 52 | 268 | 4.0 | 9.0 | 0.00 | 0.02 | 0.00 | 85 | 1012.4 |
| 20260901180041 | 53 | 269 | 5.0 | 14.0 | 0.00 | 0.02 | 0.00 | 84 | 1012.3 |
| 20260901174540 | 53 | 269 | 6.0 | 12.0 | 0.00 | 0.02 | 0.00 | 84 | 1012.3 |
| 20260901173052 | 53 | 274 | 6.0 | 14.0 | 0.00 | 0.02 | 0.00 | 84 | 1012.3 |
| 20260901171536 | 53 | 267 | 4.0 | 12.0 | 0.00 | 0.02 | 0.00 | 84 | 1012.3 |
| 20260901170034 | 53 | 248 | 8.0 | 13.0 | 0.00 | 0.02 | 0.00 | 85 | 1012.2 |
| 20260901164530 | 53 | 264 | 4.0 | 14.0 | 0.00 | 0.02 | 0.00 | 85 | 1012.4 |
| 20260901163028 | 54 | 262 | 5.0 | 12.0 | 0.00 | 0.02 | 0.00 | 84 | 1012.3 |
| 20260901161525 | 55 | 261 | 5.0 | 13.0 | 0.00 | 0.02 | 0.00 | 82 | 1012.3 |
| 20260901160021 | 57 | 241 | 3.0 | 17.0 | 0.00 | 0.02 | 0.00 | 80 | 1012.1 |
| 20260901154516 | 58 | 275 | 4.0 | 10.0 | 0.00 | 0.02 | 0.00 | 80 | 1011.7 |
| 20260901153031 | 57 | 265 | 2.0 | 7.0 | 0.00 | 0.02 | 0.00 | 80 | 1011.5 |
| 20260901151513 | 58 | 288 | 3.0 | 9.0 | 0.00 | 0.02 | 0.00 | 79 | 1011.5 |
| 20260901150008 | 58 | 261 | 5.0 | 11.0 | 0.00 | 0.02 | 0.00 | 78 | 1011.4 |
| 20260901144508 | 58 | 281 | 5.0 | 12.0 | 0.00 | 0.02 | 0.00 | 78 | 1011.5 |
| 20260901143003 | 59 | 275 | 6.0 | 13.0 | 0.00 | 0.02 | 0.00 | 77 | 1011.3 |
| 20260901141608 | 59 | 245 | 7.0 | 13.0 | 0.00 | 0.02 | 0.00 | 76 | 1011.2 |
| 20260901140057 | 59 | 300 | 6.0 | 13.0 | 0.00 | 0.02 | 0.00 | 77 | 1011.4 |
| 20260901134601 | 59 | 272 | 5.0 | 13.0 | 0.00 | 0.02 | 0.02 | 76 | 1011.3 |
| 20260901133056 | 59 | 285 | 5.0 | 13.0 | 0.00 | 0.02 | 0.02 | 76 | 1011.5 |
| 20260901131555 | 59 | 290 | 5.0 | 12.0 | 0.00 | 0.02 | 0.02 | 76 | 1011.8 |
| 20260901130055 | 59 | 281 | 5.0 | 14.0 | 0.00 | 0.02 | 0.02 | 76 | 1011.7 |
| 20260901124557 | 59 | 267 | 8.0 | 18.0 | 0.00 | 0.02 | 0.02 | 75 | 1011.7 |
| 20260901123053 | 59 | 282 | 7.0 | 18.0 | 0.00 | 0.02 | 0.02 | 74 | 1011.6 |
| 20260901121609 | 60 | 288 | 7.0 | 17.0 | 0.00 | 0.02 | 0.02 | 72 | 1011.4 |
| 20260901120104 | 60 | 296 | 5.0 | 16.0 | 0.00 | 0.02 | 0.02 | 71 | 1011.2 |
| 20260901114559 | 60 | 338 | 6.0 | 13.0 | 0.00 | 0.02 | 0.02 | 70 | 1011.0 |
| 20260901113051 | 60 | 326 | 4.0 | 15.0 | 0.00 | 0.02 | 0.02 | 70 | 1011.0 |
| 20260901111553 | 60 | 299 | 6.0 | 18.0 | 0.00 | 0.02 | 0.02 | 70 | 1010.8 |
| 20260901110048 | 59 | 264 | 3.0 | 7.0 | 0.02 | 0.02 | 0.02 | 74 | 1010.8 |
| 20260901104546 | 58 | 278 | 2.0 | 5.0 | 0.02 | 0.02 | 0.02 | 79 | 1011.2 |
| 20260901103046 | 57 | 265 | 0.0 | 1.0 | 0.02 | 0.02 | 0.02 | 80 | 1011.5 |
| 20260901101551 | 58 | 329 | 1.0 | 7.0 | 0.02 | 0.02 | 0.02 | 78 | 1011.4 |
| 20260901100044 | 59 | 267 | 2.0 | 6.0 | 0.00 | 0.00 | 0.00 | 74 | 1011.6 |
| 20260901094544 | 60 | 318 | 3.0 | 8.0 | 0.00 | 0.00 | 0.00 | 73 | 1011.3 |
| 20260901093109 | 60 | 14 | 6.0 | 11.0 | 0.00 | 0.00 | 0.00 | 72 | 1011.3 |
| 20260901091558 | 61 | 335 | 4.0 | 14.0 | 0.00 | 0.00 | 0.00 | 70 | 1011.3 |
| 20260901090042 | 63 | 315 | 8.0 | 16.0 | 0.00 | 0.00 | 0.00 | 67 | 1011.4 |
| 20260901084540 | 63 | 292 | 9.0 | 18.0 | 0.00 | 0.00 | 0.00 | 65 | 1011.5 |
| 20260901083044 | 64 | 334 | 6.0 | 11.0 | 0.00 | 0.00 | 0.00 | 64 | 1011.6 |
| 20260901081537 | 64 | 313 | 1.0 | 7.0 | 0.00 | 0.00 | 0.00 | 64 | 1011.5 |
| 20260901080043 | 65 | 290 | 3.0 | 11.0 | 0.00 | 0.00 | 0.00 | 62 | 1011.8 |
| 20260901074535 | 65 | 327 | 5.0 | 14.0 | 0.00 | 0.00 | 0.00 | 60 | 1011.9 |
| 20260901073035 | 66 | 328 | 6.0 | 12.0 | 0.00 | 0.00 | 0.00 | 60 | 1011.9 |
| 20260901071535 | 66 | 322 | 7.0 | 13.0 | 0.00 | 0.00 | 0.00 | 59 | 1011.9 |
| 20260901070038 | 66 | 354 | 6.0 | 15.0 | 0.00 | 0.00 | 0.00 | 59 | 1012.0 |
| 20260901064538 | 66 | 329 | 5.0 | 11.0 | 0.00 | 0.00 | 0.00 | 58 | 1012.0 |
| 20260901063037 | 66 | 312 | 4.0 | 13.0 | 0.00 | 0.00 | 0.00 | 57 | 1012.2 |
| 20260901061531 | 67 | 333 | 7.0 | 15.0 | 0.00 | 0.00 | 0.00 | 55 | 1012.1 |
| 20260901060031 | 67 | 328 | 7.0 | 18.0 | 0.00 | 0.00 | 0.00 | 54 | 1012.0 |
| 20260901054532 | 67 | 338 | 9.0 | 15.0 | 0.00 | 0.00 | 0.00 | 53 | 1012.2 |
| 20260901053034 | 67 | 325 | 7.0 | 17.0 | 0.00 | 0.00 | 0.00 | 53 | 1012.2 |
| 20260901051530 | 67 | 327 | 5.0 | 15.0 | 0.00 | 0.00 | 0.00 | 53 | 1012.3 |
| 20260901050029 | 68 | 271 | 3.0 | 8.0 | 0.00 | 0.00 | 0.00 | 53 | 1012.5 |
| 20260901044529 | 68 | 321 | 5.0 | 16.0 | 0.00 | 0.00 | 0.00 | 50 | 1012.1 |
| 20260901043028 | 68 | 316 | 9.0 | 23.0 | 0.00 | 0.00 | 0.00 | 51 | 1011.9 |
| 20260901041526 | 69 | 338 | 5.0 | 16.0 | 0.00 | 0.00 | 0.00 | 51 | 1011.9 |
| 20260901040028 | 69 | 334 | 9.0 | 19.0 | 0.00 | 0.00 | 0.00 | 52 | 1011.9 |
| 20260901034523 | 69 | 314 | 9.0 | 25.0 | 0.00 | 0.00 | 0.00 | 52 | 1012.2 |
| 20260901033034 | 69 | 320 | 10.0 | 26.0 | 0.00 | 0.00 | 0.00 | 51 | 1012.5 |